Cedar Island, NC

6:19 AM EDT on July 24, 2016 (GMT -0400)
Piney Island

Weather History for KNBT - January, 2014

Change the Weather History Date:

Saturday, January 11, 2014

  Actual Average (KMRH) Record (KMRH)
Temperature  
Mean Temperature 68 °F -  
Max Temperature 77 °F 52 °F 71 °F (2006)
Min Temperature 59 °F 33 °F 4 °F (1982)
Cooling Degree Days 3    
Growing Degree Days 18 (Base 50)    
Moisture  
Dew Point 66 °F    
Average Humidity 92    
Maximum Humidity 100    
Minimum Humidity 74    
Precipitation  
Precipitation 0.00 in - - ()
Sea Level Pressure  
Sea Level Pressure 29.89 in    
Wind  
Wind Speed 17 mph (SSW)    
Max Wind Speed 31 mph    
Max Gust Speed 47 mph    
Averages and records for this station are not official NWS values.
T = Trace of Precipitation, MM = Missing Value Source: NWS Daily Summary

Daily Weather History Graph

Daily Weather History Graph

Search for Another Location

Airport or City:

Trip Planner

Search our weather history database for the weather conditions in past years. The results will help you decide how hot, cold, wet, or windy it might be!

Date:

Astronomy

Jan. 11, 2014 Rise Set
Actual Time 7:14 AM EST 5:13 PM EST
Civil Twilight 6:46 AM EST 5:41 PM EST
Nautical Twilight 6:15 AM EST 6:12 PM EST
Astronomical Twilight 5:44 AM EST 6:43 PM EST
Moon 1:54 PM EST (1/11) 3:18 AM EST (1/11)
Length of Visible Light 10h 54m
Length of Day
9h 59m
Waxing Gibbous, 83% of the Moon is Illuminated
Jan 11
Waxing Gibbous
Jan 15
Full
Jan 24
Last Quarter
Jan 30
New
Feb 6
First Quarter

Hourly Weather History & Observations

Time (EST) Temp. Dew Point Humidity Pressure Visibility Wind Dir Wind Speed Gust Speed Precip Events Conditions
12:05 AM 69.1 °F 66.9 °F 93% 30.12 in - SSE 20.7 mph 28.8 mph N/A Rain Heavy Rain
12:15 AM 68.0 °F 68.0 °F 100% 30.13 in - South 15.0 mph 23.0 mph N/A Rain Heavy Rain
12:37 AM 66.9 °F 66.9 °F 100% 30.11 in - SSE 12.7 mph 19.6 mph N/A   Overcast
12:44 AM 66.0 °F 66.0 °F 100% 30.10 in - SSE 13.8 mph - N/A   Overcast
12:56 AM 68.0 °F 66.9 °F 96% 30.11 in - South 15.0 mph 23.0 mph N/A   Overcast
1:10 AM 66.9 °F 66.9 °F 100% 30.09 in - South 13.8 mph - N/A Rain Light Rain
1:56 AM 66.9 °F 66.9 °F 100% 30.10 in - South 13.8 mph - N/A Rain Light Rain
2:13 AM 66.9 °F 66.9 °F 100% 30.08 in - South 11.5 mph - N/A   Overcast
2:46 AM 66.9 °F 66.0 °F 97% 30.07 in - South 17.3 mph 25.3 mph N/A   Overcast
2:56 AM 68.0 °F 66.0 °F 93% 30.08 in - SSW 16.1 mph 21.9 mph N/A   Mostly Cloudy
3:06 AM 68.0 °F 66.0 °F 93% 30.07 in - SSW 13.8 mph - N/A   Scattered Clouds
3:56 AM 66.9 °F 64.9 °F 93% 30.06 in - South 8.1 mph - N/A   Clear
4:56 AM 66.9 °F 64.9 °F 93% 30.04 in - SSE 8.1 mph - N/A   Mostly Cloudy
5:28 AM 66.0 °F 64.9 °F 96% 30.01 in - South 9.2 mph - N/A   Scattered Clouds
5:43 AM 66.0 °F 64.9 °F 96% 30.01 in - South 9.2 mph - N/A   Mostly Cloudy
5:56 AM 66.9 °F 64.9 °F 93% 30.02 in - South 10.4 mph - N/A   Partly Cloudy
6:56 AM 66.0 °F 64.0 °F 93% 30.00 in - South 10.4 mph - N/A   Clear
7:56 AM 68.0 °F 66.9 °F 96% 29.99 in - South 9.2 mph 19.6 mph N/A   Mostly Cloudy
8:56 AM 70.0 °F 68.0 °F 93% 29.97 in - South 19.6 mph 29.9 mph N/A   Scattered Clouds
9:56 AM 72.0 °F 69.1 °F 91% 29.96 in - South 21.9 mph 32.2 mph N/A   Mostly Cloudy
10:28 AM 73.0 °F 69.1 °F 87% 29.93 in - South 24.2 mph 41.4 mph N/A   Mostly Cloudy
10:42 AM 73.0 °F 70.0 °F 90% 29.93 in - South 27.6 mph 35.7 mph N/A   Mostly Cloudy
10:56 AM 75.9 °F 69.1 °F 79% 29.93 in - South 25.3 mph 35.7 mph N/A   Mostly Cloudy
11:29 AM 77.0 °F 69.1 °F 76% 29.89 in - South 31.1 mph 39.1 mph N/A   Mostly Cloudy
11:56 AM 77.0 °F 70.0 °F 79% 29.88 in - SSW 27.6 mph 41.4 mph N/A   Overcast
12:19 PM 77.0 °F 69.1 °F 76% 29.84 in - SSW 24.2 mph 39.1 mph N/A   Mostly Cloudy
12:56 PM 77.0 °F 68.0 °F 74% 29.82 in - SSW 26.5 mph 40.3 mph N/A   Overcast
1:22 PM 75.0 °F 69.1 °F 82% 29.78 in - SSW 25.3 mph 38.0 mph N/A   Mostly Cloudy
1:56 PM 75.0 °F 69.1 °F 82% 29.78 in - SSW 27.6 mph 39.1 mph N/A   Mostly Cloudy
2:41 PM 73.9 °F - N/A% 29.74 in - SSW 31.1 mph 41.4 mph N/A   Overcast
2:56 PM 73.9 °F - N/A% 29.76 in - SSW 25.3 mph 36.8 mph N/A Rain Light Rain
3:08 PM 71.1 °F - N/A% 29.74 in - SSW 24.2 mph 44.9 mph N/A Rain Rain
3:16 PM 72.0 °F - N/A% 29.74 in - SSW 27.6 mph 47.2 mph N/A Rain Light Rain
3:26 PM 71.1 °F - N/A% 29.75 in - SSW 28.8 mph 40.3 mph N/A Rain Light Rain
3:56 PM 71.1 °F - N/A% 29.76 in - SSW 26.5 mph 36.8 mph N/A Rain Light Rain
4:34 PM 69.1 °F - N/A% 29.72 in - SSW 23.0 mph 33.4 mph N/A   Mostly Cloudy
4:56 PM 69.1 °F - N/A% 29.74 in - SSW 19.6 mph 31.1 mph N/A Rain Light Rain
5:51 PM 60.8 °F - N/A% 29.79 in - West 20.7 mph 39.1 mph N/A Rain Heavy Rain
5:56 PM 60.1 °F - N/A% 29.78 in - West 17.3 mph 28.8 mph N/A Rain Heavy Rain
6:04 PM 60.1 °F - N/A% 29.76 in - West 12.7 mph 23.0 mph N/A Rain Heavy Rain
6:56 PM 60.1 °F - N/A% 29.76 in - SW 9.2 mph - N/A Rain Light Rain
7:56 PM 60.1 °F 60.1 °F 100% 29.75 in - SSW 6.9 mph - N/A   Overcast
8:56 PM 59.0 °F 59.0 °F 100% 29.69 in - SSE 5.8 mph - N/A Rain Light Rain
9:56 PM 59.0 °F 59.0 °F 100% 29.67 in - South 9.2 mph - N/A Rain Light Rain
10:56 PM 60.1 °F - N/A% 29.68 in - SSW 10.4 mph - N/A   Scattered Clouds
11:18 PM 60.1 °F - N/A% 29.68 in - SW 10.4 mph - N/A   Mostly Cloudy
11:38 PM 61.0 °F - N/A% 29.67 in - SW 13.8 mph - N/A   Scattered Clouds
11:56 PM 61.0 °F - N/A% 29.68 in - SW 12.7 mph - N/A   Clear